Regional Weather Roundup
Issued by NWS Grand Forks, ND

Home | Current Version | Previous Version | Graphics & Text | Print | Product List | Glossary On
Versions: 1 2 3 4 5 6 7 8 9 10 11 12 13 14 15 16 17 18 19 20 21 22 23 24 25 26 27 28 29 30 31 32 33 34 35 36 37 38 39 40 41 42 43 44 45 46 47 48 49 50
000
ASUS43 KFGF 041231
RWRFGF
PRAIRIE TO PINES  WEATHER ROUNDUP
NATIONAL WEATHER SERVICE EASTERN NORTH DAKOTA/GRAND FORKS ND
600 AM CST WED MAR 04 2015

 **SATELLITE DATA USED TO AUGMENT SKY COVER AT AUTOMATED STATIONS**
 *****  WEATHER ACROSS EASTERN NORTH DAKOTA  *****

CITY           SKY/WX    TMP DP  RH WIND       PRES   REMARKS
GRAND FORKS    PTCLDY    -9 -15  75 NW7       30.15R WCI -24
6HR MIN TEMP:  -9; 6HR MAX TEMP:  -1;

GRAND FRKS AFB CLEAR     -8 -16  69 NW10      30.14R WCI -27
GRAND FRKS NWS   N/A     -9 N/A N/A NW7         N/A  WCI -24
DEVILS LAKE    CLEAR    -11 -24  53 NW10      30.12R WCI -30
6HR MIN TEMP: -11; 6HR MAX TEMP:  -2;

FARGO          CLEAR     -5 -12  72 W10       30.15R WCI -23
WAHPETON ARPT  FAIR      -4 -11  71 W7        30.16R WCI -18
$$

 ***** WEATHER ACROSS CENTRAL AND WESTERN NORTH DAKOTA  *****

CITY           SKY/WX    TMP DP  RH WIND       PRES   REMARKS
BISMARCK       CLEAR     -2 -10  69 NW15G25   30.20R WCI -22
6HR MIN TEMP:  -2; 6HR MAX TEMP:   5; 6HR PCP: TRACE;

MINOT          FAIR     -10 -19  64 W18       30.17R WCI -34
6HR MIN TEMP: -10; 6HR MAX TEMP:   1; 6HR PCP: TRACE;

JAMESTOWN      CLEAR     -5 -11  75 W10       30.11R WCI -23
6HR MIN TEMP:  -6; 6HR MAX TEMP:   1; 6HR PCP: TRACE;

MINOT AFB      CLEAR    -12 -19  70 NW17      30.17R WCI -36
GARRISON         N/A     -9 -16  71 NW14      30.17R WCI -30
WILLISTON      PTCLDY    -8 -15  71 NW13      30.23R WCI -28
6HR MIN TEMP: -10; 6HR MAX TEMP:  -2;

DICKINSON      CLEAR     -5 -13  68 NW13      30.11R WCI -24
6HR MIN TEMP:  -5; 6HR MAX TEMP:   5;

HETTINGER      CLEAR     -5 -11  75 NW13      30.13R WCI -24
6HR MIN TEMP:  -6; 6HR MAX TEMP:   8; 6HR PCP: TRACE;

$$

 *****  OTHER AIRPORT OBSERVATIONS IN OUR AREA  *****

CITY           SKY/WX    TMP DP  RH WIND       PRES   REMARKS
WALHALLA         N/A     -9 -18  64 NW10      30.15R WCI -28
GRAFTON AIRPOR NOT AVBL
VALLEY CITY AR FAIR      -4  -9  77 NW14      30.12R WCI -24
CANDO          FAIR     -17 -22  76 NW10      30.14R WCI -37
CAVALIER APRT  FAIR      -9 -17  70 NW12      30.16R WCI -29
GWINNER        MOSUNNY    1  -6  71 NW10      30.15R WCI -14
SHEYENNE NWR     N/A     -5 -13  67 W6        29.95S WCI -18
ROLLA          FAIR     -13 -20  70 NW18G24   30.10R WCI -38
 ***** THE ABOVE OBSERVATIONS ARE NON NWS ARE NOT QUALITY
       CONTROLLED AND MAY MIS-REPORT RAIN FOR SNOW...
$$

  *****  WEATHER ACROSS NORTHERN MINNESOTA  *****

CITY           SKY/WX    TMP DP  RH WIND       PRES   REMARKS
FLAG ISLAND    CLEAR    -15 -20  76 W9        30.00R WCI -33
WARROAD        CLEAR    -15 -20  76 W6        30.03R WCI -29
ROSEAU         CLEAR    -11 -18  70 W7        30.06R WCI -26
HALLOCK        CLEAR    -11 -18  70 NW9       30.12R WCI -29
THF RVR FALLS  CLEAR    -11 N/A N/A NW8       30.08R WCI -28
6HR MIN TEMP:  -9; 6HR MAX TEMP:  -2;

BAUDETTE       CLEAR    -13 -19  75 W9        29.99R WCI -31
6HR MIN TEMP: -15; 6HR MAX TEMP:  -5;

WASKISH        CLEAR    -11 -15  84 W5        30.01R WCI -23
CROOKSTON      FAIR      -8 -15  71 NW9       30.15R WCI -25
$$
  *****  WEATHER ACROSS CENTRAL AND WEST MINNESOTA  *****

CITY           SKY/WX    TMP DP  RH WIND       PRES   REMARKS
FOSSTON        PTCLDY   -11 -17  77 W9        30.06R WCI -29
BEMIDJI        CLEAR    -10 -15  79 W9        30.01R WCI -27
PARK RAPIDS    CLEAR    -12 -17  78 W9        30.01R WCI -30
6HR MIN TEMP: -12; 6HR MAX TEMP:  -2;

ELBOW LAKE     PTSUNNY   -5 -10  78 W8        30.13R WCI -20
6HR MIN TEMP:  -7; 6HR MAX TEMP:  -1;

WADENA         CLEAR    -11 -15  84 W8        30.06R WCI -28
DETROIT LAKES  CLEAR     -4  -9  77 NW12      30.08R WCI -22
MOORHEAD       CLEAR     -2  -8  78 NW12      30.16R WCI -20
FERGUS FALLS   PTCLDY    -6 -13  71 W8        30.17R WCI -21
MORRIS MN      CLOUDY    -2  -9  71 W10       30.14R WCI -19
STAPLES        CLEAR     -9 -15  77 W9        30.06R WCI -27
$$
  *****  WEATHER ELSEWHERE ACROSS MINNESOTA  *****

CITY           SKY/WX    TMP DP  RH WIND       PRES   REMARKS
DULUTH         PTCLDY    -7 -13  75 W10       29.94R WCI -25
6HR MIN TEMP:  -7; 6HR MAX TEMP:   1; 6HR PCP: TRACE;

INTRNTL FALLS  CLEAR    -15 -20  78 W7        29.97R WCI -31
6HR MIN TEMP: -15; 6HR MAX TEMP:  -4; 6HR PCP:  0.01;

ELY            CLEAR    -11 -17  77 W6        29.92R WCI -25
CLOQUET        CLEAR     -8 -15  71 W7        29.98R WCI -22
WHEATON        CLOUDY    -6 -11  77 W5        30.19R HAZE    WCI -17
BRAINERD       CLEAR     -8 -13  78 W8        30.05R WCI -24
6HR MIN TEMP:  -9; 6HR MAX TEMP:   0;

HIBBING        CLEAR    -12 -17  78 W6        29.96R WCI -26
6HR MIN TEMP: -13; 6HR MAX TEMP:  -2;

ALEXANDRIA     CLEAR     -7 -12  79 W10       30.09R WCI -25
6HR MIN TEMP:  -7; 6HR MAX TEMP:  -1;

SAINT CLOUD    CLEAR     -3 -10  72 W10       30.10R WCI -20
6HR MIN TEMP:  -4; 6HR MAX TEMP:   2;

MINNEAPOLIS    FAIR       0  -9  65 W9        30.15R WCI -15
6HR MIN TEMP:   0; 6HR MAX TEMP:   6;

$$

  *****  WEATHER ACROSS SOUTH DAKOTA  *****

CITY           SKY/WX    TMP DP  RH WIND       PRES   REMARKS
SIOUX FALLS    PTCLDY     1  -4  79 CALM      30.16R
6HR MIN TEMP:   0; 6HR MAX TEMP:   6;

BROOKINGS      NOT AVBL
WATERTOWN      CLOUDY    -4 -11  72 W8        30.10R WCI -19
6HR MIN TEMP:  -9; 6HR MAX TEMP:   1;

HURON          MOCLDY    -1  -6  79 SW6       30.16R WCI -13
6HR MIN TEMP:  -9; 6HR MAX TEMP:  -1;

SISSETON         N/A      1  -6  72 NW14      30.14  WCI -17
ABERDEEN       LGT SNOW   2  -3  80 SW5       30.15S WCI  -8
6HR MIN TEMP: -10; 6HR MAX TEMP:   3; 6HR PCP: TRACE;

MITCHELL       CLEAR      2  -4  76 W7        30.19R WCI -11
PIERRE         CLEAR      7  -1  70 NW15      30.18R WCI -10
6HR MIN TEMP:   2; 6HR MAX TEMP:   8;

MOBRIDGE       CLEAR      3  -8  60 NW21G30   30.14R WCI -18
RAPID CITY     CLEAR      2  -5  72 N10       30.10R WCI -14
6HR MIN TEMP:  -3; 6HR MAX TEMP:   5;

$$

  *****  SOME WEATHER IN NEARBY STATES *****

CITY           SKY/WX    TMP DP  RH WIND       PRES   REMARKS
GLASGOW MT     CLEAR     -3 -10  72 W7        30.23R WCI -16
6HR MIN TEMP:  -4; 6HR MAX TEMP:   2;

GREAT FALLS MT CLEAR      4  -2  76 SW13      30.14F WCI -13
6HR MIN TEMP:   4; 6HR MAX TEMP:  12;

CHEYENNE WY    FLURRIES   3  -2  79 W3        29.99R
6HR MIN TEMP:   1; 6HR MAX TEMP:   7; 6HR PCP:  0.02;

SCOTTSBLUFF NE PTCLDY     8   3  80 NW8       30.13R WCI  -4
6HR MIN TEMP:   7; 6HR MAX TEMP:  14;

OMAHA NE       CLOUDY    15   7  70 N3        30.26R
6HR MIN TEMP:  14; 6HR MAX TEMP:  18; 6HR PCP:  0.01;

DES MOINES IA  PTCLDY    13   0  56 NW9       30.23R WCI   1
6HR MIN TEMP:  13; 6HR MAX TEMP:  16;

DAVENPORT IA   PTCLDY     8  -1  66 NW13      30.12R WCI  -8
6HR MIN TEMP:   7; 6HR MAX TEMP:  19;

CHICAGO IL     PTCLDY    18  12  77 NW14      30.00R WCI   4
6HR MIN TEMP:  18; 6HR MAX TEMP:  31;

EAU CLAIRE WI  CLEAR      0  -9  65 W10       30.08R WCI -16
6HR MIN TEMP:   0; 6HR MAX TEMP:   9;

LA CROSSE WI   CLEAR      6  -3  66 W8        30.12R WCI  -7
6HR MIN TEMP:   6; 6HR MAX TEMP:  14;

$$

  *****  SOME NATIONAL WEATHER *****

CITY           SKY/WX    TMP DP  RH WIND       PRES   REMARKS
LA GUARDIA NY  LGT RAIN  36  33  89 S7        29.81R FOG
6HR MIN TEMP:  36; 6HR MAX TEMP:  37; 6HR PCP:  0.01;

RALEIGH NC     DRZL/FOG  43  41  93 SW7       30.01S VSB 1/8
6HR MIN TEMP:  38; 6HR MAX TEMP:  43; 6HR PCP:  0.01;

ATLANTA GA     FOG       55  55 100 SW8       30.04R VSB 1/8
6HR MIN TEMP:  50; 6HR MAX TEMP:  56;

NEW ORLEANS LA LGT RAIN  68  66  93 CALM      29.98R FOG
6HR MIN TEMP:  67; 6HR MAX TEMP:  69; 6HR PCP:  0.01;

OKLAHOMA CITY  CLOUDY    35  26  69 N16G24    30.02R
6HR MIN TEMP:  35; 6HR MAX TEMP:  44; 6HR PCP: TRACE;

ALBUQUERQUE NM PTCLDY    34  27  75 NW5       29.89R
6HR MIN TEMP:  31; 6HR MAX TEMP:  42;

SALT LAKE CITY PTCLDY    27  22  81 SE6       30.07R WCI  20
6HR MIN TEMP:  27; 6HR MAX TEMP:  31;

LOS ANGELES CA CLEAR     50  44  80 NE5       29.98S
6HR MIN TEMP:  50; 6HR MAX TEMP:  58;




USA.gov is the U.S. government's official web portal to all federal, state and local government web resources and services.